EW5095 Weather Reports


Display with metric or nautical units.
time (UTC)temp
F
wind
direction
speed
MPH
gust
MPH
rain 1hr
in
rain 24hr
in
rain mn
in
humidity
%
barometer
mb
20260506015505 71 91 9.0 16.0 0.00 0.00 0.00 39 1006.8
20260506014005 72 98 8.0 14.0 0.00 0.00 0.00 38 1006.5
20260506013505 72 105 9.0 14.0 0.00 0.00 0.00 38 1006.4
20260506013005 72 92 9.0 14.0 0.00 0.00 0.00 38 1006.3
20260506012504 73 86 9.0 14.0 0.00 0.00 0.00 37 1006.4
20260506012005 73 96 9.0 14.0 0.00 0.00 0.00 37 1006.1
20260506011505 73 95 9.0 13.0 0.00 0.00 0.00 37 1006.0
20260506011005 74 90 8.0 13.0 0.00 0.00 0.00 36 1006.0
20260506010505 74 98 9.0 14.0 0.00 0.00 0.00 36 1005.9
20260506010005 74 87 10.0 17.0 0.00 0.00 0.00 35 1005.9
20260506005504 74 102 10.0 17.0 0.00 0.00 0.00 35 1005.9
20260506005005 75 88 9.0 15.0 0.00 0.00 0.00 34 1006.0
20260506004505 75 95 8.0 14.0 0.00 0.00 0.00 33 1005.9
20260506003504 76 74 9.0 15.0 0.00 0.00 0.00 33 1005.7
20260506003004 76 78 10.0 15.0 0.00 0.00 0.00 32 1005.9
20260506002505 76 91 9.0 15.0 0.00 0.00 0.00 32 1005.7
20260506002005 76 83 9.0 15.0 0.00 0.00 0.00 31 1005.7
20260506001505 76 92 8.0 15.0 0.00 0.00 0.00 31 1005.8
20260506000504 77 83 6.0 12.0 0.00 0.00 0.00 30 1005.6
20260505235505 77 89 2.0 7.0 0.00 0.00 0.00 30 1005.5
20260505235004 77 88 2.0 3.0 0.00 0.00 0.00 30 1005.4
20260505234505 78 87 3.0 6.0 0.00 0.00 0.00 29 1005.4
20260505233504 78 90 3.0 10.0 0.00 0.00 0.00 29 1005.2
20260505233004 78 88 3.0 10.0 0.00 0.00 0.00 28 1005.5
20260505232505 79 144 6.0 14.0 0.00 0.00 0.00 28 1005.3
20260505232004 79 96 6.0 14.0 0.00 0.00 0.00 28 1005.2
20260505231505 80 84 5.0 14.0 0.00 0.00 0.00 27 1005.1
20260505231005 80 127 5.0 10.0 0.00 0.00 0.00 27 1005.1
20260505230005 81 130 4.0 12.0 0.00 0.00 0.00 26 1005.2
20260505225504 81 109 6.0 12.0 0.00 0.00 0.00 26 1005.1
20260505224504 82 38 3.0 10.0 0.00 0.00 0.00 25 1004.9
20260505224005 82 17 3.0 9.0 0.00 0.00 0.00 24 1004.8
20260505223504 82 76 5.0 12.0 0.00 0.00 0.00 24 1004.5
20260505223005 82 49 5.0 12.0 0.00 0.00 0.00 24 1004.5
20260505222504 82 54 6.0 12.0 0.00 0.00 0.00 24 1004.4
20260505222005 82 12 7.0 12.0 0.00 0.00 0.00 24 1004.5
20260505221505 82 36 6.0 12.0 0.00 0.00 0.00 25 1004.5
20260505221005 83 353 6.0 10.0 0.00 0.00 0.00 24 1004.9
20260505220505 83 336 5.0 12.0 0.00 0.00 0.00 24 1004.7
20260505220004 84 45 3.0 12.0 0.00 0.00 0.00 23 1004.8
20260505215504 84 205 3.0 7.0 0.00 0.00 0.00 23 1004.8
20260505215005 84 6 5.0 12.0 0.00 0.00 0.00 23 1004.6
20260505214504 85 32 8.0 12.0 0.00 0.00 0.00 23 1005.0
20260505214004 86 351 10.0 20.0 0.00 0.00 0.00 22 1004.7
20260505213504 87 345 11.0 20.0 0.00 0.00 0.00 21 1004.8
20260505213005 87 289 11.0 20.0 0.00 0.00 0.00 19 1004.6
20260505212505 88 293 12.0 18.0 0.00 0.00 0.00 19 1005.0
20260505212005 88 259 10.0 21.0 0.00 0.00 0.00 19 1004.8
20260505211504 89 272 7.0 21.0 0.00 0.00 0.00 19 1004.8
20260505211005 89 296 5.0 14.0 0.00 0.00 0.00 20 1004.7
20260505210504 89 239 3.0 10.0 0.00 0.00 0.00 20 1004.7
20260505210004 88 301 5.0 12.0 0.00 0.00 0.00 21 1004.7
20260505205504 88 260 5.0 12.0 0.00 0.00 0.00 21 1004.6
20260505205005 88 323 3.0 10.0 0.00 0.00 0.00 21 1004.5
20260505204504 87 241 2.0 7.0 0.00 0.00 0.00 21 1004.7
20260505204004 87 337 3.0 10.0 0.00 0.00 0.00 22 1005.0
20260505203505 87 15 5.0 12.0 0.00 0.00 0.00 22 1005.0
20260505203004 87 21 4.0 12.0 0.00 0.00 0.00 22 1005.0
20260505202504 87 12 5.0 12.0 0.00 0.00 0.00 23 1004.9
20260505202004 87 316 7.0 12.0 0.00 0.00 0.00 22 1005.0
20260505201504 87 352 8.0 13.0 0.00 0.00 0.00 22 1005.1
20260505200504 87 345 8.0 14.0 0.00 0.00 0.00 22 1005.2
20260505200004 88 333 10.0 15.0 0.00 0.00 0.00 21 1005.3
20260505195504 88 342 10.0 18.0 0.00 0.00 0.00 22 1005.4
20260505195005 88 2 6.0 18.0 0.00 0.00 0.00 22 1005.2
20260505194504 88 17 5.0 13.0 0.00 0.00 0.00 22 1005.2
20260505194004 88 353 7.0 15.0 0.00 0.00 0.00 21 1005.3
20260505193504 88 324 8.0 15.0 0.00 0.00 0.00 21 1005.5
20260505193005 88 1 7.0 16.0 0.00 0.00 0.00 23 1005.5
20260505192504 87 316 7.0 16.0 0.00 0.00 0.00 23 1005.5
20260505192004 87 318 8.0 14.0 0.00 0.00 0.00 23 1005.5
20260505191504 86 327 7.0 14.0 0.00 0.00 0.00 23 1005.5
20260505191004 86 2 7.0 12.0 0.00 0.00 0.00 23 1005.6
20260505190504 87 339 8.0 16.0 0.00 0.00 0.00 22 1005.6
20260505190005 87 328 9.0 16.0 0.00 0.00 0.00 22 1005.5
20260505185504 87 321 9.0 17.0 0.00 0.00 0.00 23 1005.6
20260505185004 87 351 10.0 18.0 0.00 0.00 0.00 22 1005.5
20260505184505 87 338 10.0 18.0 0.00 0.00 0.00 23 1005.7
20260505184005 87 4 9.0 18.0 0.00 0.00 0.00 23 1005.7
20260505183504 87 357 9.0 16.0 0.00 0.00 0.00 22 1005.6
20260505183005 87 37 11.0 17.0 0.00 0.00 0.00 22 1005.7
20260505182504 87 336 12.0 20.0 0.00 0.00 0.00 22 1005.8
20260505182004 88 343 12.0 20.0 0.00 0.00 0.00 23 1005.8
20260505181504 88 339 10.0 15.0 0.00 0.00 0.00 22 1005.7
20260505181004 87 30 9.0 15.0 0.00 0.00 0.00 22 1005.7
20260505180504 87 13 8.0 15.0 0.00 0.00 0.00 22 1005.8
20260505180004 87 333 8.0 15.0 0.00 0.00 0.00 21 1006.0
20260505175004 87 351 12.0 18.0 0.00 0.00 0.00 21 1006.0
20260505174004 87 358 10.0 17.0 0.00 0.00 0.00 21 1006.2
20260505173505 87 353 10.0 20.0 0.00 0.00 0.00 21 1006.2
20260505173004 87 337 10.0 20.0 0.00 0.00 0.00 20 1006.4
20260505172504 87 358 11.0 17.0 0.00 0.00 0.00 20 1006.1
20260505172004 87 0 12.0 17.0 0.00 0.00 0.00 20 1006.0
20260505171505 87 1 12.0 18.0 0.00 0.00 0.00 20 1006.1
20260505171004 87 2 12.0 18.0 0.00 0.00 0.00 20 1006.2
20260505165504 87 359 10.0 16.0 0.00 0.00 0.00 19 1006.0
20260505165004 87 320 10.0 16.0 0.00 0.00 0.00 19 1006.0
20260505164004 86 335 9.0 16.0 0.00 0.00 0.00 20 1005.9
20260505163504 86 309 9.0 16.0 0.00 0.00 0.00 20 1006.0
20260505163004 85 323 10.0 17.0 0.00 0.00 0.00 21 1006.1
20260505162504 85 304 11.0 17.0 0.00 0.00 0.00 21 1006.1
20260505162004 85 309 10.0 16.0 0.00 0.00 0.00 20 1006.0
20260505161504 85 318 9.0 15.0 0.00 0.00 0.00 21 1005.9
20260505161005 85 295 10.0 16.0 0.00 0.00 0.00 21 1005.7
20260505160504 85 319 12.0 16.0 0.00 0.00 0.00 21 1005.8
20260505153004 83 328 10.0 18.0 0.00 0.00 0.00 23 1005.2
20260505152003 83 302 12.0 18.0 0.00 0.00 0.00 24 1005.3
20260505151005 82 307 12.0 20.0 0.00 0.00 0.00 25 1005.7
20260505150504 81 278 12.0 20.0 0.00 0.00 0.00 25 1005.7
20260505140504 76 275 10.0 16.0 0.00 0.00 0.00 34 1005.0
20260505124507 69 272 9.0 16.0 0.00 0.00 0.00 48 1004.4
20260505124006 69 260 10.0 16.0 0.00 0.00 0.00 52 1004.1
20260505123507 69 253 10.0 15.0 0.00 0.00 0.00 54 1004.2
20260505123006 68 269 8.0 15.0 0.00 0.00 0.00 57 1004.2
20260505122507 68 255 7.0 15.0 0.00 0.00 0.00 59 1004.1
20260505122006 67 255 6.0 13.0 0.00 0.00 0.00 60 1004.0
20260505121507 67 265 5.0 12.0 0.00 0.00 0.00 61 1003.7
20260505121007 67 263 6.0 12.0 0.00 0.00 0.00 62 1003.7
20260505120507 67 248 6.0 12.0 0.00 0.00 0.00 63 1003.7
20260505120007 67 254 7.0 12.0 0.00 0.00 0.00 64 1003.6
20260505115507 67 255 8.0 12.0 0.00 0.00 0.00 65 1003.9
20260505115006 67 265 8.0 14.0 0.00 0.00 0.00 66 1003.9
20260505114506 67 263 9.0 14.0 0.00 0.00 0.00 67 1004.0
20260505114006 67 247 8.0 14.0 0.00 0.00 0.00 68 1003.9
20260505113507 67 247 7.0 12.0 0.00 0.00 0.00 67 1004.1
20260505113007 67 246 7.0 12.0 0.00 0.00 0.00 67 1003.9
20260505112506 67 251 6.0 12.0 0.00 0.00 0.00 67 1003.8
20260505111507 67 243 8.0 14.0 0.00 0.00 0.00 67 1003.6
20260505111006 67 253 7.0 14.0 0.00 0.00 0.00 66 1003.9
20260505110507 67 244 6.0 12.0 0.00 0.00 0.00 66 1003.8
20260505102007 69 260 5.0 9.0 0.00 0.00 0.00 63 1003.5
20260505101506 69 249 6.0 12.0 0.00 0.00 0.00 63 1003.5
20260505101006 69 244 7.0 12.0 0.00 0.00 0.00 63 1003.7
20260505100506 69 245 7.0 12.0 0.00 0.00 0.00 62 1003.6
20260505100006 69 244 7.0 12.0 0.00 0.00 0.00 62 1003.5
20260505095507 70 233 6.0 10.0 0.00 0.00 0.00 61 1003.4
20260505095006 70 253 6.0 10.0 0.00 0.00 0.00 60 1003.5
20260505094507 70 233 6.0 10.0 0.00 0.00 0.00 60 1003.4
20260505094006 70 239 6.0 12.0 0.00 0.00 0.00 60 1003.4
20260505093506 71 236 7.0 13.0 0.00 0.00 0.00 60 1003.6
20260505093006 71 244 10.0 15.0 0.00 0.00 0.00 60 1003.5
20260505092506 71 236 10.0 20.0 0.00 0.00 0.00 60 1003.5
20260505092006 71 242 9.0 20.0 0.00 0.00 0.00 60 1003.4
20260505091506 71 230 8.0 16.0 0.00 0.00 0.00 59 1003.4
20260505091007 71 236 6.0 13.0 0.00 0.00 0.00 59 1003.3
20260505090506 71 222 6.0 12.0 0.00 0.00 0.00 58 1003.5
20260505090007 71 226 7.0 13.0 0.00 0.00 0.00 58 1003.3
20260505085007 72 245 8.0 14.0 0.00 0.00 0.00 57 1003.3
20260505084506 72 237 8.0 14.0 0.00 0.00 0.00 57 1003.4
20260505084006 72 237 10.0 16.0 0.00 0.00 0.00 57 1003.5
20260505083507 72 233 10.0 16.0 0.00 0.00 0.00 56 1003.5
20260505083006 72 215 8.0 16.0 0.00 0.00 0.00 56 1003.4
20260505082006 72 239 7.0 16.0 0.00 0.00 0.00 55 1003.5
20260505081507 73 238 9.0 16.0 0.00 0.00 0.00 54 1003.5
20260505081006 73 218 9.0 15.0 0.00 0.00 0.00 53 1003.5
20260505080507 73 213 9.0 15.0 0.00 0.00 0.00 53 1003.6
20260505080006 73 215 10.0 14.0 0.00 0.00 0.00 52 1003.6
20260505075506 73 226 9.0 14.0 0.00 0.00 0.00 52 1003.5
20260505075007 74 215 9.0 13.0 0.00 0.00 0.00 51 1003.5
20260505074006 74 222 9.0 13.0 0.00 0.00 0.00 50 1003.9
20260505073506 74 228 10.0 16.0 0.00 0.00 0.00 49 1004.0
20260505073006 74 217 10.0 16.0 0.00 0.00 0.00 48 1003.9
20260505072507 74 218 9.0 16.0 0.00 0.00 0.00 47 1004.1
20260505072006 75 218 9.0 15.0 0.00 0.00 0.00 46 1004.0
20260505071507 75 217 10.0 15.0 0.00 0.00 0.00 46 1004.1
20260505071007 75 230 9.0 15.0 0.00 0.00 0.00 45 1004.2
20260505070506 75 227 9.0 16.0 0.00 0.00 0.00 43 1004.2
20260505070006 75 230 9.0 16.0 0.00 0.00 0.00 42 1004.2
20260505065506 75 229 9.0 16.0 0.00 0.00 0.00 41 1004.2
20260505065007 75 209 8.0 15.0 0.00 0.00 0.00 37 1004.2
20260505064507 75 218 6.0 14.0 0.00 0.00 0.00 33 1004.1
20260505064006 75 208 6.0 12.0 0.00 0.00 0.00 29 1004.1
20260505063506 75 212 7.0 12.0 0.00 0.00 0.00 28 1004.2
20260505063006 75 207 8.0 12.0 0.00 0.00 0.00 28 1004.4
20260505062506 76 207 8.0 12.0 0.00 0.00 0.00 27 1004.5
20260505062007 76 210 6.0 12.0 0.00 0.00 0.00 26 1004.6
20260505060506 77 207 5.0 7.0 0.00 0.00 0.00 24 1004.5
20260505055506 77 227 3.0 7.0 0.00 0.00 0.00 23 1004.6
20260505055006 77 228 5.0 12.0 0.00 0.00 0.00 23 1004.6
20260505054506 77 221 6.0 12.0 0.00 0.00 0.00 22 1004.6
20260505054006 77 245 6.0 12.0 0.00 0.00 0.00 22 1004.6
20260505053506 77 245 5.0 10.0 0.00 0.00 0.00 22 1004.5
20260505052506 77 250 5.0 10.0 0.00 0.00 0.00 22 1004.5
20260505052006 77 248 5.0 10.0 0.00 0.00 0.00 22 1004.5
20260505051006 77 250 7.0 12.0 0.00 0.00 0.00 22 1004.4
20260505050506 77 243 7.0 12.0 0.00 0.00 0.00 22 1004.5
20260505041006 77 255 6.0 12.0 0.00 0.00 0.00 21 1004.8
20260505040505 77 256 7.0 13.0 0.00 0.00 0.00 21 1004.8
20260505040006 77 263 7.0 13.0 0.00 0.00 0.00 21 1004.5
20260505035506 77 264 7.0 12.0 0.00 0.00 0.00 21 1004.5
20260505035007 77 262 7.0 12.0 0.00 0.00 0.00 21 1004.4
20260505034507 77 263 6.0 12.0 0.00 0.00 0.00 21 1004.3
20260505034005 77 260 6.0 12.0 0.00 0.00 0.00 22 1004.4
20260505033006 77 252 5.0 9.0 0.00 0.00 0.00 23 1004.3
20260505032506 77 246 5.0 9.0 0.00 0.00 0.00 23 1004.1
20260505032006 77 251 5.0 9.0 0.00 0.00 0.00 23 1004.2
20260505031506 77 248 5.0 9.0 0.00 0.00 0.00 23 1004.3
20260505031006 77 250 5.0 9.0 0.00 0.00 0.00 23 1004.1
20260505030506 77 258 5.0 9.0 0.00 0.00 0.00 23 1004.0
20260505030006 77 255 5.0 9.0 0.00 0.00 0.00 23 1003.9
20260505025506 77 250 5.0 10.0 0.00 0.00 0.00 23 1003.9
20260505025005 77 244 5.0 10.0 0.00 0.00 0.00 23 1003.9
20260505024506 78 238 5.0 9.0 0.00 0.00 0.00 23 1003.8
20260505024006 78 242 3.0 9.0 0.00 0.00 0.00 23 1003.9
20260505023506 78 245 3.0 6.0 0.00 0.00 0.00 23 1003.9
20260505022006 78 245 5.0 9.0 0.00 0.00 0.00 23 1003.6
20260505021506 79 245 5.0 9.0 0.00 0.00 0.00 23 1003.8
20260505021005 79 242 5.0 9.0 0.00 0.00 0.00 23 1003.8
20260505020506 79 251 6.0 10.0 0.00 0.00 0.00 23 1003.8
20260505020006 80 247 6.0 10.0 0.00 0.00 0.00 23 1003.6